Regional Weather Roundup
Issued by NWS Charleston, WV

Home | Current Version | Previous Version | Graphics & Text | Print | Product List | Glossary On
Versions: 1 2 3 4 5 6 7 8 9 10 11 12 13 14 15 16 17 18 19 20 21 22 23 24 25 26 27 28 29 30 31 32 33 34 35 36 37 38 39 40 41 42 43 44 45 46 47 48 49 50
000
ASUS41 KRLX 192010
RWRRLX
West Virginia Regional Weather Roundup
National Weather Service Charleston WV
400 PM EDT THU APR 19 2018

Note: "fair" indicates few or no clouds below 12,000 feet with no
significant weather and/or obstructions to visibility.

WVZ003-192100-
Northern Panhandle of West Virginia

CITY           SKY/WX    TMP DP  RH WIND       PRES   REMARKS
WHEELING       CLOUDY    41  28  60 NW16G24   30.11S
$$

WVZ009-192100-
Northwest West Virginia

CITY           SKY/WX    TMP DP  RH WIND       PRES   REMARKS
PARKERSBURG    CLOUDY    47  31  53 W14G20    30.21R
$$

WVZ006-192100-
Western West Virginia

CITY           SKY/WX    TMP DP  RH WIND       PRES   REMARKS
HUNTINGTON     CLOUDY    45  30  55 NW14      30.23R
$$

WVZ015-192100-
West Central West Virginia

CITY           SKY/WX    TMP DP  RH WIND       PRES   REMARKS
CHARLESTON     CLOUDY    44  31  60 W13G28    30.20R
$$

WVZ022-031-192100-
North Central West Virginia

CITY           SKY/WX    TMP DP  RH WIND       PRES   REMARKS
CLARKSBURG     CLOUDY    41  27  57 W18G25    30.13R
MORGANTOWN     CLOUDY    39  28  64 NW8       30.12R
$$

WVZ025-035-042-045-192100-
Southern West Virginia

CITY           SKY/WX    TMP DP  RH WIND       PRES   REMARKS
BECKLEY        CLOUDY    37  29  72 NW9G23    30.13R
LOGAN          CLOUDY    41  30  65 NW5G15    30.19R
BLUEFIELD      CLOUDY    35  26  69 NW8G18    30.12R
LEWISBURG      CLOUDY    38  29  70 W8G18     30.10S
$$

WVZ047-192100-
Northern Mountains of West Virginia

CITY           SKY/WX    TMP DP  RH WIND       PRES   REMARKS
ELKINS         LGT RAIN  37  30  75 NW18G32   30.08R
$$

WVZ052-192100-
Eastern Panhandle of West Virginia

CITY           SKY/WX    TMP DP  RH WIND       PRES   REMARKS
MARTINSBURG    CLOUDY    46  27  47 NW17G31   30.00R
PETERSBURG     CLOUDY    43  32  64 NW14G32   30.06R
$$



USA.gov is the U.S. government's official web portal to all federal, state and local government web resources and services.